Погода в Шардонеми

Россия / Архангельская область     63°54′19″N   44°35′43″E
темп.,
°C
ветер,
м/с
пор.,
м/с
влажн.,
%
обл.,
%
осадки,
мм/ч
давл.,
гПа
погр.,
м
25 июля, вс
вс2500:00+8зюз2787100 0.0 1010232
03:00+8зюз3980100 0.0 1010339
06:00+10зюз387499 0.0 1010324
09:00+11зюз31069100 0.1 1010580
12:00+17зюз594849 0.0 10101588
15:00+14з5107895 1.0 10111002
18:00+15сз26825 2.4 1011774
21:00+9ссв269318 2.6 1013124
26 июля, пн
пн2600:00+7ссз119346 0.0 101410
03:00+6юз229520 0.0 101419
06:00+9юз369099 0.0 1014208
09:00+12з3675100 0.0 1014638
12:00+10з269150 0.2 1014380
15:00+14ссз4758100 0.4 10141115
18:00+13ссз58489 0.0 10151613
21:00+9сз39645 0.0 1016441
27 июля, вт
вт2700:00+8зсз41169100 0.0 1017676
03:00+10зсз4107392 0.0 1017746
06:00+10сз4107732 0.0 1017790
09:00+14сз595773 0.0 10161381
12:00+16ссз6104528 0.0 10161542
15:00+18ссз6103830 0.0 10152074
18:00+17ссз510412 0.0 10151773
21:00+10с26625 0.0 1016158
28 июля, ср
ср2800:00+6ссз23841 0.0 101646
03:00+4сз11959 0.0 101612
06:00+8зюз1272100 0.0 1014199
09:00+12ююз1363100 0.0 1011439
12:00+9ююв3596100 2.8 1009174
15:00+11ю2395100 5.0 1008221
18:00+13св228942 0.0 1007342
21:00+11в239037 0.0 100664
29 июля, чт
чт2900:00+7св11972 0.0 100610
03:00+8всв009583 0.0 100618
06:00+10всв129293 0.0 1005164
09:00+15вюв226278 0.0 1004750
12:00+16ююв3356100 0.0 1003781
15:00+19ююв3545100 0.0 10021180
18:00+20юв3553100 0.0 999908
21:00+15ююв2482100 0.1 99989